Weather Roundup
Issued by NWS Chicago, IL

Home | Current Version | Previous Version | Text Only | Print | Product List | Glossary On
Versions: 1 2 3 4 5 6 7 8 9 10 11 12 13 14 15 16 17 18 19 20 21 22 23 24 25 26 27 28 29 30 31 32 33 34 35 36 37 38 39 40 41 42 43 44 45 46 47 48 49 50
000
NZUS59 KLOT 271812
HRRLOT

CHICAGO AREA WEATHER ROUNDUP
NATIONAL WEATHER SERVICE CHICAGO/ROMEOVILLE IL
100 PM CDT FRI MAR 27 2015

NOTE: "FAIR" INDICATES FEW OR NO CLOUDS BELOW 12,000 FEET WITH NO
SIGNIFICANT WEATHER AND/OR OBSTRUCTIONS TO VISIBILITY.

* THESE STATIONS ARE NOT UNDER NWS QUALITY CONTROL. THEY ALSO MAY NOT
  REPORT WEATHER SUCH AS PRECIPITATION OR FOG.

ILZ005-006-012>014-019>023-271900-
NORTHEAST ILLINOIS

CITY           SKY/WX    TMP DP  RH WIND       PRES   REMARKS
OHARE          MOSUNNY   29  10  45 NE13      30.16S WCI  19
6HR MIN TEMP:  22; 6HR MAX TEMP:  30; 6HR PCP: TRACE;

MIDWAY         PTSUNNY   29  11  47 NE14G21   30.17S WCI  18
6HR MIN TEMP:  25; 6HR MAX TEMP:  31; 6HR PCP: TRACE;

AURORA         SUNNY     32   7  35 N12G22    30.17S WCI  23
6HR MIN TEMP:  23; 6HR MAX TEMP:  32;

LANSING*       CLOUDY    28  13  52 N15       30.16S WCI  17
JOLIET*        SUNNY     32   9  37 N14G20    30.17S WCI  22
WAUKEGAN       PTSUNNY   27  12  53 N12G21    30.16F WCI  17
6HR MIN TEMP:  19; 6HR MAX TEMP:  27;

DUPAGE AIRPORT MOSUNNY   30   6  36 VRB7G22   30.16S WCI  23
6HR MIN TEMP:  22; 6HR MAX TEMP:  31;

WHEELING       PTSUNNY   28  10  46 NE15G24   30.19S WCI  16
6HR MIN TEMP:  21; 6HR MAX TEMP:  30;

KANKAKEE*      MOSUNNY   32  13  45 N10       30.15F WCI  23
MORRIS*        SUNNY     32   8  37 N7G16     30.17S WCI  26
LEWIS AIRPORT* SUNNY     29   7  39 N12G21    30.17S WCI  20
NORTHERLY IS     N/A     27  12  53 N20         N/A  WCI  14
$$

WIZ051-052-058>065-066-070>072-271900-
SOUTHEAST WISCONSIN

CITY           SKY/WX    TMP DP  RH WIND       PRES   REMARKS
MILWAUKEE      MOSUNNY   27   8  44 NE16G23   30.18S WCI  15
6HR MIN TEMP:  18; 6HR MAX TEMP:  28;

KENOSHA*       MOSUNNY   28   8  43 NE8       30.18S WCI  20
RACINE*        MOSUNNY   26  12  55 N18G24    30.20S WCI  13
BURLINGTON     SUNNY     28   4  37 N14G20    30.17S WCI  16
WAUKESHA       MOSUNNY   27   3  36 N10G20    30.18S WCI  17
WEST BEND      PTSUNNY   27   5  39 N14G21    30.17F WCI  15
$$

INZ001>003-010>013-019-020-271900-
NORTHWEST INDIANA

CITY           SKY/WX    TMP DP  RH WIND       PRES   REMARKS
GARY*          PTSUNNY   30  12  47 NW20G33   30.17S WCI  18
MICHIGAN CITY* NOT AVBL
RENSSELAER*    NOT AVBL
VALPARAISO     FLURRIES  26  15  63 NE13G22   30.13S WCI  15
$$

LMZ740>746-271900-
SOUTHERN LAKE MICHIGAN

STATION/POSITION TIME  SKY/WX   TEMP WIND        PRES    VSBY
                                AIR  DIR/SP/G
                 (UTC)          (F)  (DEG/KT/KT) (MB)    (MI)
HARRISON CRIB    1700            24  340/ 22/ 28   N/A
BURNHAM HARBOR   1800            28  360/ 12/ 19   N/A
CALUMET HARBOR   1700            26  330/ 17/ 23 1020.4R
BURNS HARBOR     1700            25  340/ 22/ 51 1021.0S
MICHIGAN CITY    1700            24  360/ 20/ 24   N/A
$$

ABBREVIATIONS USED IN REMARKS
   TC - TEMPERATURE IN CELSIUS
  WCI - WIND CHILL INDEX
   HX - HEAT INDEX
  VSB - VISIBILITY
$$



USA.gov is the U.S. government's official web portal to all federal, state and local government web resources and services.